Barking Sands, HI

8:29 AM HST on December 12, 2017 (GMT -1000)
Barking Sands PMRF

Weather History for PHBK - November, 2011

Change the Weather History Date:

Monday, November 14, 2011

  Actual Average Record
Temperature  
Mean Temperature 76 °F -  
Max Temperature 82 °F 83 °F 88 °F (1952)
Min Temperature 69 °F 64 °F 61 °F (1949)
Cooling Degree Days 11    
Growing Degree Days 26 (Base 50)    
Moisture  
Dew Point 61 °F    
Average Humidity 61    
Maximum Humidity 70    
Minimum Humidity 51    
Precipitation  
Precipitation 0.00 in - - ()
Sea Level Pressure  
Sea Level Pressure 30.04 in    
Wind  
Wind Speed 5 mph (NE)    
Max Wind Speed 9 mph    
Max Gust Speed -    
Visibility 10 miles    
Events      
Averages and records for this station are not official NWS values.
T = Trace of Precipitation, MM = Missing Value Source: NWS Daily Summary

Daily Weather History Graph

Daily Weather History Graph

Search for Another Location

Airport or City:

Trip Planner

Search our weather history database for the weather conditions in past years. The results will help you decide how hot, cold, wet, or windy it might be!

Date:

Astronomy

Nov. 14, 2011 Rise Set
Actual Time 6:50 AM HST 5:56 PM HST
Civil Twilight 6:26 AM HST 6:19 PM HST
Nautical Twilight 5:59 AM HST 6:46 PM HST
Astronomical Twilight 5:33 AM HST 7:13 PM HST
Moon 9:21 PM HST (11/14) 10:08 AM HST (11/14)
Length of Visible Light 11h 53m
Length of Day
11h 06m
Waning Gibbous, 85% of the Moon is Illuminated
Nov 14
Waning Gibbous
Nov 18
Last Quarter
Nov 24
New
Dec 1
First Quarter
Dec 10
Full

Hourly Weather History & Observations

Time (HST) Temp. Heat Index Dew Point Humidity Pressure Visibility Wind Dir Wind Speed Gust Speed Precip Events Conditions
12:56 AM 71.1 °F - 57.0 °F 61% 30.07 in 10.0 mi East 4.6 mph - N/A   Clear
1:56 AM 70.0 °F - 57.0 °F 63% 30.06 in 10.0 mi East 4.6 mph - N/A   Clear
2:56 AM 70.0 °F - 57.9 °F 65% 30.04 in 10.0 mi ENE 5.8 mph - N/A   Clear
3:56 AM 70.0 °F - 57.9 °F 65% 30.04 in 10.0 mi ENE 4.6 mph - N/A   Clear
4:56 AM 70.0 °F - 57.9 °F 65% 30.04 in 10.0 mi ENE 4.6 mph - N/A   Clear
5:56 AM 70.0 °F - 57.9 °F 65% 30.05 in 10.0 mi East 4.6 mph - N/A   Clear
6:56 AM 70.0 °F - 59.0 °F 68% 30.06 in 10.0 mi East 5.8 mph - N/A   Clear
7:56 AM 73.9 °F - 62.1 °F 66% 30.06 in 10.0 mi ENE 4.6 mph - N/A   Clear
8:56 AM 79.0 °F - 64.9 °F 62% 30.07 in 10.0 mi Calm Calm - N/A   Overcast
9:56 AM 79.0 °F - 64.0 °F 60% 30.08 in 10.0 mi WNW 5.8 mph - N/A   Mostly Cloudy
10:56 AM 78.1 °F - 64.0 °F 62% 30.07 in 10.0 mi NW 3.5 mph - N/A   Overcast
11:56 AM 80.1 °F 81.5 °F 63.0 °F 56% 30.04 in 10.0 mi Variable 3.5 mph - N/A   Overcast
12:56 PM 80.1 °F 81.5 °F 63.0 °F 56% 30.02 in 10.0 mi NNW 6.9 mph - N/A   Overcast
1:56 PM 81.0 °F 82.2 °F 63.0 °F 54% 29.99 in 10.0 mi Variable 3.5 mph - N/A   Mostly Cloudy
2:56 PM 82.9 °F 84.0 °F 63.0 °F 51% 29.98 in 10.0 mi NNW 5.8 mph - N/A   Overcast
3:56 PM 82.9 °F 84.0 °F 63.0 °F 51% 29.99 in 10.0 mi North 9.2 mph - N/A   Overcast
4:56 PM 80.1 °F 81.2 °F 62.1 °F 54% 30.00 in 10.0 mi NNW 4.6 mph - N/A   Mostly Cloudy
5:56 PM 79.0 °F - 62.1 °F 56% 30.02 in 10.0 mi NNW 4.6 mph - N/A   Partly Cloudy
6:56 PM 73.9 °F - 61.0 °F 64% 30.03 in 10.0 mi Calm Calm - N/A   Clear
7:56 PM 73.0 °F - 60.1 °F 64% 30.05 in 10.0 mi ENE 3.5 mph - N/A   Clear
8:56 PM 72.0 °F - 60.1 °F 66% 30.06 in 10.0 mi ENE 5.8 mph - N/A   Clear
9:56 PM 72.0 °F - 60.1 °F 66% 30.06 in 10.0 mi East 5.8 mph - N/A   Clear
10:56 PM 72.0 °F - 59.0 °F 64% 30.06 in 10.0 mi Calm Calm - N/A   Clear
11:56 PM 69.1 °F - 59.0 °F 70% 30.05 in 10.0 mi East 4.6 mph - N/A   Clear